Location: Ellerstadt
(49.4644°N, 8.2615°E)
Time: 20:51:11
(UTC+00:00)

Vanguard 1 - Pass Details

Date: 17 June 2021
Orbit: 651 x 3831 km, 34.2° (Epoch: 29 July)

Event Time Altitude Azimuth Distance (km) Brightness Sun altitude
Rises 23:30:30 0° 254° (WSW) 7,785 14.5 -17.1°
Reaches altitude 10° 23:36:34 10° 250° (WSW) 6,485 14.0 -17.1°
Maximum altitude 23:53:50 43° 188° (S) 3,166 12.1 -16.9°
Drops below altitude 10° 00:04:07 10° 121° (ESE) 3,950 12.9 -16.7°
Sets 00:06:50 0° 114° (ESE) 4,603 13.4 -16.6°
